Weather History for KMWT - January, 2013

Change the Weather History Date:

Sunday, January 6, 2013

  Actual Average (KHOT) Record (KHOT)
Temperature  
Mean Temperature 39 °F -  
Max Temperature 54 °F 48 °F - (-1)
Min Temperature 24 °F 29 °F - (-1)
Degree Days  
Heating Degree Days 26    
Moisture  
Dew Point 26 °F    
Average Humidity 72    
Maximum Humidity 100    
Minimum Humidity 30    
Precipitation  
Precipitation 0.00 in - - ()
Sea Level Pressure  
Sea Level Pressure 30.31 in    
Wind  
Wind Speed 1 mph (NNW)    
Max Wind Speed 9 mph    
Max Gust Speed 17 mph    
Visibility 8 miles    
Events      
Averages and records for this station are not official NWS values.
T = Trace of Precipitation, MM = Missing Value Source: NWS Daily Summary

Daily Weather History Graph

Daily Weather History Graph

Search for Another Location

Airport or City:

Trip Planner

Search our weather history database for the weather conditions in past years. The results will help you decide how hot, cold, wet, or windy it might be!

Date:

Astronomy

Jan. 06, 2013 Rise Set
Actual Time 7:21 AM CST 5:19 PM CST
Civil Twilight 6:54 AM CST 5:46 PM CST
Nautical Twilight 6:22 AM CST 6:18 PM CST
Astronomical Twilight 5:52 AM CST 6:48 PM CST
Moon 1:42 AM CST (1/6) 12:42 PM CST (1/6)
Length of Visible Light 10h 52m
Length of Day
9h 57m
Waning Crescent, 33% of the Moon is Illuminated
Jan 6
Waning Crescent
Jan 11
New
Jan 18
First Quarter
Jan 26
Full
Feb 3
Last Quarter

Hourly Weather History & Observations

Time (CST) Temp. Windchill Dew Point Humidity Pressure Visibility Wind Dir Wind Speed Gust Speed Precip Events Conditions
12:01 AM 28.4 °F - 28.4 °F 100% 30.24 in 2.5 mi Calm Calm - N/A   Clear
12:11 AM 28.4 °F - 26.6 °F 93% 30.24 in 4.0 mi Calm Calm - N/A   Clear
12:53 AM 28.9 °F - 27.0 °F 92% 30.27 in 5.0 mi Calm Calm - N/A   Clear
1:53 AM 28.0 °F - 26.1 °F 92% 30.28 in 6.0 mi Calm Calm - N/A   Clear
2:53 AM 26.1 °F - 25.0 °F 96% 30.28 in 7.0 mi Calm Calm - N/A   Clear
3:53 AM 28.0 °F - 26.1 °F 92% 30.28 in 5.0 mi Calm Calm - N/A   Clear
4:53 AM 27.0 °F - 25.0 °F 92% 30.27 in 5.0 mi Calm Calm - N/A   Clear
5:53 AM 28.0 °F - 27.0 °F 96% 30.28 in 3.0 mi Calm Calm - N/A   Clear
6:53 AM 24.1 °F - 21.9 °F 91% 30.29 in 9.0 mi Calm Calm - N/A   Clear
7:53 AM 25.0 °F - 24.1 °F 96% 30.32 in 6.0 mi Calm Calm - N/A   Clear
8:53 AM 35.1 °F - 32.0 °F 89% 30.32 in 9.0 mi Calm Calm - N/A   Clear
9:53 AM 42.1 °F - 32.0 °F 67% 30.34 in 10.0 mi Calm Calm - N/A   Clear
10:53 AM 46.0 °F 41.9 °F 28.0 °F 50% 30.34 in 10.0 mi NNW 8.1 mph - N/A   Clear
11:53 AM 48.0 °F - 23.0 °F 37% 30.32 in 10.0 mi NW 6.9 mph 16.1 mph N/A   Clear
12:53 PM 50.0 °F - 23.0 °F 35% 30.30 in 10.0 mi NNW 6.9 mph - N/A   Clear
1:53 PM 53.1 °F - 23.0 °F 31% 30.29 in 10.0 mi Variable 4.6 mph 17.3 mph N/A   Clear
2:53 PM 54.0 °F - 23.0 °F 30% 30.29 in 10.0 mi NNW 9.2 mph - N/A   Clear
3:53 PM 53.1 °F - 23.0 °F 31% 30.30 in 10.0 mi NNW 3.5 mph - N/A   Clear
4:53 PM 50.0 °F - 23.0 °F 35% 30.32 in 10.0 mi NNW 4.6 mph - N/A   Clear
5:53 PM 45.0 °F 43.5 °F 26.1 °F 48% 30.33 in 10.0 mi NW 3.5 mph - N/A   Clear
6:53 PM 39.0 °F - 26.1 °F 60% 30.35 in 10.0 mi Calm Calm - N/A   Clear
7:53 PM 35.1 °F - 26.1 °F 70% 30.36 in 10.0 mi Calm Calm - N/A   Clear
8:53 PM 30.0 °F - 25.0 °F 82% 30.36 in 10.0 mi Calm Calm - N/A   Clear
9:53 PM 30.0 °F - 25.0 °F 82% 30.37 in 10.0 mi Calm Calm - N/A   Clear
10:53 PM 28.0 °F - 24.1 °F 85% 30.38 in 10.0 mi Calm Calm - N/A   Clear
11:53 PM 26.1 °F - 24.1 °F 92% 30.39 in 10.0 mi Calm Calm - N/A   Clear